Location: Stamford Observatory
(41.1241°N, 73.5498°W)
Time: 10:14:58
(UTC-04:00)

IRS-P3 - Visible Passes

Search period start: 01 October 2014 00:00
Search period end: 11 October 2014 00:00
Orbit: 815 x 820 km, 98.6° (Epoch: 30 September)

Date Brightness Start Highest point End Pass type
(mag) Time Alt. Az. Time Alt. Az. Time Alt. Az.
01 Oct 6.6 03:33:53 10° N 03:34:27 13° N 03:34:27 13° N visible
02 Oct 6.7 03:12:09 10° N 03:12:38 13° N 03:12:38 13° N visible
03 Oct 6.9 02:50:35 10° N 02:50:49 11° N 02:50:49 11° N visible
05 Oct 6.7 03:48:29 10° N 03:48:30 10° N 03:48:30 10° N visible
06 Oct 6.8 03:26:37 10° N 03:26:41 10° N 03:26:41 10° N visible
